weather.gov     
National Weather Service

Regional Weather Roundup
NWS Homepage
This page is being discontinued on March 12, 2014.
The same data is available at this site. Please update your bookmarks.
Thank you, and we apologize for the inconvenience.
Please send an email to SR-SRH.Webmaster@noaa.gov with any concerns.


Current Version
Previous Version:    01  02  03  04  05  06  07  08  09  10  11  12  13  14  15  16  17  18  19  20  21  22  23  24  25  26  27  
[Printable]
660
ASUS41 KBGM 210010
RWRBGM
RWRBGM
BINGHAMTON REGIONAL WEATHER ROUNDUP
NATIONAL WEATHER SERVICE BINGHAMTON NY
800 PM EDT SAT SEP 20 2014

Note: "fair" indicates few or no clouds below 12,000 feet with no
significant weather and/or obstructions to visibility.

* = Station(s) that does not report precipitation, such as rain,
snow, etc, also no thunder or fog.

!NYZ009-015>018-022>025-036-037-044>046-055>057-062-210100
...CENTRAL NEW YORK...

CITY           SKY/WX    TMP DP  RH WIND       PRES   REMARKS
BINGHAMTON     CLEAR     64  57  78 S13       30.01F
CORTLAND       MOCLDY    66  59  77 S10       29.99S
DANSVILLE      CLEAR     66  58  75 S7        29.90F
ELMIRA         CLEAR     69  59  70 SW9       29.96S
ITHACA         CLEAR     66  58  75 S8        29.98F
HAMILTON       CLEAR     66  57  72 S7        29.99S
MONTICELLO     CLEAR     63  55  77 S7        30.11F
NORWICH        CLEAR     63  57  82 S5        30.01S
ONEONTA        CLEAR     63  54  72 S3        30.04S
PENN YAN       CLEAR     68  59  73 S9        29.93F
ROME           CLOUDY    67  58  72 E8        29.98S
SIDNEY         CLEAR     66  61  82 SW5       30.03S
SYRACUSE       PTCLDY    71  58  63 S16G25    29.93S
$$

!PAZ038>040-043-044-047-048-072-210100
...NORTHEAST PENNSYLVANIA...

CITY           SKY/WX    TMP DP  RH WIND       PRES   REMARKS
HAZLETON       CLEAR     64  57  77 SE10G17   30.10F
SCRANTON       PTCLDY    68  56  65 VRB3      30.05F
TOWANDA*       CLEAR     70  57  64 S7        30.00F
$$
&&
KEY
WCI = WIND CHILL INDEX
VSB = VISIBILITY
HX  = HEAT INDEX
$$




U.S. Dept. of Commerce
NOAA National Weather Service
1325 East West Highway
Silver Spring, MD 20910
E-mail: w-nws.webmaster@noaa.gov
Page last modified: May 16, 2007
NATIONAL WEATHER SERVICE: for Safety, for Work, for Fun - FOR LIFE